Location: Caltech
(34.1382°N, 118.1253°W)
Time: 20:28:07
(UTC-08:00)

PANSAT - Visible Passes

Search period start: 04 December 2016 00:00
Search period end: 14 December 2016 00:00
Orbit: 478 x 485 km, 28.5° (Epoch: 04 December)

Date Brightness Start Highest point End Pass type
(mag) Time Alt. Az. Time Alt. Az. Time Alt. Az.
04 Dec 10.0 18:25:47 10° WSW 18:28:18 17° SSW 18:30:08 13° SSE visible
05 Dec 10.1 17:56:33 10° WSW 17:59:04 17° SSW 18:01:33 10° SSE visible
06 Dec 10.2 17:27:21 10° WSW 17:29:49 17° SSW 17:32:17 10° SSE visible
